Regional Weather Roundup
Issued by NWS Charleston, SC

Current Version | Previous Version | Graphics & Text | Print | Product List | Glossary On
Versions: 1 2 3 4 5 6 7 8 9 10 11 12 13 14 15 16 17 18 19 20 21 22 23 24 25 26 27 28 29 30 31 32 33 34 35 36 37 38 39 40 41 42 43 44 45 46 47 48 49 50
000
ASUS42 KCHS 022112
RWRCHS

REGIONAL WEATHER ROUNDUP
NATIONAL WEATHER SERVICE CHARLESTON SC
500 PM EDT THU JUL 02 2015

NOTE: "FAIR" INDICATES FEW OR NO CLOUDS BELOW 12,000 FEET WITH NO
SIGNIFICANT WEATHER AND/OR OBSTRUCTIONS TO VISIBILITY.

NOT ALL STATIONS ARE QUALITY CONTROLLED BY THE NATIONAL
WEATHER SERVICE. USE DATA WITH CAUTION...ESPECIALLY
DEWPOINT OBSERVATIONS.

SCZ027-030-031-034>040-042>050-022200-
...SOUTHEAST SOUTH CAROLINA...

CITY           SKY/WX    TMP DP  RH WIND       PRES   REMARKS
N CHARLESTON   MOSUNNY   89  73  59 S15G23    29.94F HX  97
WATERFRONT PAR   N/A     84  77  79 S13       29.93F HX  94
MOUNT PLEASANT FAIR      88  75  66 S13G22    29.95S HX  97
JOHNS ISLAND   FAIR      86  77  74 S16       29.96F HX  97
PINOPOLIS      NOT AVBL
MONCKS CORNER  FAIR      93  72  49 SW16      29.92F HX 100
SUMMERVILLE    FAIR      91  73  55 SE6       29.94S HX 100
BEAUFORT MCAS  SUNNY     93  70  46 S13G18    29.94F HX  99
BEAUFORT ARPT  FAIR      88  77  70 S8G20     29.94F HX 100
HILTON HEAD IS MOSUNNY   84  75  74 S7        29.97F HX  92
WALTERBORO     PTCLDY    91  68  46 S15       29.94S HX  95
ALLENDALE      MOCLDY    91  70  49 SW6       29.92S HX  97

...SOUTHERN MIDLANDS AND PEE DEE...

CITY           SKY/WX    TMP DP  RH WIND       PRES   REMARKS
GEORGETOWN     NOT AVBL
KINGSTREE      NOT AVBL
ORANGEBURG     MOSUNNY   92  67  43 S12       29.92F HX  95
BARNWELL       FAIR      91  72  52 SW12      29.93S HX  98
AIKEN          NOT AVBL
MANNING        FAIR      90  64  43 S7G16     29.90F HX  91
COLUMBIA       TSTM      73  68  84 W16G39    29.98R VSB 1
SUMTER         MOSUNNY   90  68  48 S12       29.88S HX  93
FLORENCE       MOSUNNY   92  68  45 SW16G25   29.88F HX  96
MYRTLE BEACH   MOSUNNY   90  70  51 S18       29.93F HX  95
N MYRTLE BEACH MOSUNNY   87  74  64 S18       29.91F HX  95

$$

GAZ063-065-086>088-099>101-113>116-118-119-134>141-150-022200-
...SOUTHEAST GEORGIA...

CITY           SKY/WX    TMP DP  RH WIND       PRES   REMARKS
SAVANNAH ARPT  PTSUNNY   92  69  47 SW10      29.95F HX  97
HUNTER AAF     MOSUNNY   92  73  53 SW8       29.93F HX 100
FORT STEWART   MOSUNNY   91  71  50 SW12G18   29.94F HX  97
STATESBORO     NOT AVBL
SYLVANIA       PTCLDY    93  73  52 SW9       29.95S HX 101
CLAXTON        FAIR      90  73  58 S5        29.95F HX  98

...CSRA...CENTRAL AND FAR SOUTHEAST GEORGIA...

CITY           SKY/WX    TMP DP  RH WIND       PRES   REMARKS
THOMSON        CLOUDY    76  76  98 N5        30.00R
AUGUSTA-BUSH   TSTM      76  67  73 N25G39    29.94R
AUGUSTA-DANIEL TSTM      74  66  76 NW9G18    29.96R
SWAINSBORO     TSTM      88  73  62 W13G23    29.99R HX  96
VIDALIA        MOSUNNY   90  70  51 SW12      29.96F HX  95
EASTMAN        TSTM      74  69  84 SW6       30.05S
HAZLEHURST     MOCLDY    87  73  63 SW3G16    29.98S HX  95
ALMA           PTSUNNY   91  71  51 W15G21    29.99F HX  97
WAYCROSS       PTSUNNY   92  73  52 W10       29.99F HX 101
JESUP          MOCLDY    91  73  55 W7        29.98S HX 100
BAXLEY         PTSUNNY   91  72  52 W9G17     29.98F HX  98
BRUNSWICK      MOSUNNY   93  70  46 W10G16    29.99S HX  99
SAINT SIMONS   MOSUNNY   88  74  63 S14G23    29.98F HX  96

$$

SCZ027-028-034-036>038-045-046-048>050-GAZ119-141-022200-
...LAKE AND SUPPLEMENTAL COASTAL OBSERVATIONS...

STATION/POSITION TIME  TEMP    WIND        PRES    WAVE   SWELL
                       AIR SEA DIR/SP/G            HT/PER HT/PER/DIR
                 (UTC) (F)     (DEG/KT/KT) (MB)    (FT/S) (FT/S/D)
UPR LAKE MARION  NOT AVBL
WINYAH BAY       1945   87     210/ 13     1014.0
LAKE MURRAY      2000   87     280/ 12/ 18 1012.2S
ACE BASIN NERRS  NOT AVBL
FORT PULASKI     2000   91 85  220/  8/ 12 1015.3F
SAPELO ISLAND    2000   93     220/ 12     1015.0F

$$

ANZ835-935-AMZ111-154-330-350-352-354-370-450-454-472-022200-
...C-MAN AND BUOY OBSERVATIONS...

STATION/POSITION TIME  TEMP    WIND        PRES    WAVE   SWELL
                       AIR SEA DIR/SP/G            HT/PER HT/PER/DIR
                 (UTC) (F)     (DEG/KT/KT) (MB)    (FT/S) (FT/S/D)
BUOY 41004       2050   82 82  200/ 16/ 17 1014.4F   4/ 5   2/ 8
BUOY 41008       2050   81 80  180/ 19/ 23 1015.4F   3/ 4   2/100/ 8
FOLLY BEACH CMAN 2000   82     180/ 16/ 18 1015.1F
CAPERS NEARSHORE 2008   82     200/ 16/ 19 1015.1F
FRIPP NEARSHORE  2000   83     200/ 17/ 21 1014.7F


STATION/POSITION TIME  TEMP    WIND        PRES    WAVE   SWELL
                       AIR SEA DIR/SP/G            HT/PER HT/PER/DIR
                 (UTC) (F)     (DEG/KT/KT) (MB)    (FT/S) (FT/S/D)
5E ST. MARYS GA  2021      79                N/A     2/ 9
FRYING PAN BUOY  2050   82 80  210/ 17/ 19 1014.2F   4/ 6   2/110/ 8
BUOY 41025       2050   81 83  210/ 23/ 27 1012.3F   5/ 5   2/150/ 8
CAPE LOOKOUT NC  2000   83     210/ 15/ 21 1013.3F
BUOY 41002       2050   82 80  210/ 10/ 12 1018.8F   5/ 7   5/220/ 7
BUOY 41010       2020   84 85  200/  6/  8 1019.3F
ST AUGUSTINE FL  2100   72 74  180/ 11/ 11 1018.9F


$$


USA.gov is the U.S. government's official web portal to all federal, state and local government web resources and services.